FENGYUN 1C DEB

Satellite information

Favourite Embed

Satellite Type and Status

DEBRISIN ORBIT

Key statistics

Satellite FENGYUN 1C DEB at a glance.

Uptime

9609

Days in orbit

Revolutions

≈ 14.8

Per day

Orbit

SSO

Sun Synchronous Orbit

Inclination

99.0

Latest

Satellite identification and parameters

Extended collection of information and parameters for FENGYUN 1C DEB.

Object identification

Identified? True

Debris? True

Object name: FENGYUN 1C DEB

International designator: 1999-025ARC

Object number (NORAD): 30694

Object ID (CCSDS): 30694

Country: PEOPLES REPUBLIC OF CHINA (PRC)

Current information (Y/N): Y

RCS size: SMALL

Orbital parameters

Period: 97.065 minutes

Inclination: 99.0287 deg

SMA: 6996.302 km

Apoapsis: 714.081 km

Periapsis: 522.254 km

RAAN: 194.0608 deg

Eccentricy: 0.01370913

Argument of periapsis: 266.1845 deg

Mean anomaly: 92.3682 deg

Mean motion: 14.83542178 rev/day

Mean motion (dot): 0.000064 rev/day2

B* drag term: 0.00066597132 1/REarth

Two-line elements (TLE)

Creation date: Aug. 30, 2025, 3:38 a.m.

Reference frame: TEME

Reference center: EARTH

Epoch: Aug. 29, 2025, 8 p.m. UTC

TLE line 0: 0 FENGYUN 1C DEB

TLE line 1: 1 30694U 99025ARC 25241.83375864 .00006400 00000-0 66597-3 0 9991

TLE line 2: 2 30694 99.0287 194.0608 0137091 266.1845 92.3682 14.83542178985454

Live tracking on map

Real-time ground track for satellite FENGYUN 1C DEB.

In-orbit conjunctions

A list of the most updated potential collisions computed for object FENGYUN 1C DEB.

Target Orbit TCA Probability of collision Miss distance Type
SL-14 R/B LEO 2025-06-03 21:00:17 0.0001494269 369.0 (m) ROCKET BODY
FENGYUN 1C DEB SSO 2024-07-23 13:46:48 0.0001881656 176.0 (m) DEBRIS

Associated space launch

Chinese polar orbiting meteorological satellite

FENGYUN 1C DEB was lifted into orbit during the mission ‘Long March 4B | Feng Yun 1C’, on board a Long March 4B space rocket.

The launch took place on May 10, 1999, 1:33 a.m. from Launch Complex 7.

For more information about the launch, click the button.

Launch to space Long March 4B | Feng Yun 1C
Long March 4B | Feng Yun 1C

Agency: N/A

Status: Launch Successful

Launch date: May 10, 1999, 1:33 a.m. UTC

Rocket: Long March 4B

Launch pad: Launch Complex 7

Location: Taiyuan Satellite Launch Center, People's Republic of China

...

Latest news about this satellite

There are no fresh news available about this satellite. Check back as we update our databases every day.


Newsletter sign-up

Weekly statistics, charts and insights to help you stay on top of the space industry.